Weather History for KSQI - January, 2013

Change the Weather History Date:

Thursday, January 31, 2013

  Actual Average Record
Temperature  
Mean Temperature 9 °F -  
Max Temperature 17 °F 29 °F 57 °F (2012)
Min Temperature 1 °F 16 °F -11 °F (2004)
Degree Days  
Heating Degree Days 56    
Moisture  
Dew Point 2 °F    
Average Humidity 68    
Maximum Humidity 73    
Minimum Humidity 57    
Precipitation  
Precipitation 0.00 in - - ()
Sea Level Pressure  
Sea Level Pressure 29.94 in    
Wind  
Wind Speed 20 mph (WNW)    
Max Wind Speed 28 mph    
Max Gust Speed 34 mph    
Visibility 10 miles    
Events      
Averages and records for this station are not official NWS values.
T = Trace of Precipitation, MM = Missing Value Source: NWS Daily Summary

Daily Weather History Graph

Daily Weather History Graph

Search for Another Location

Airport or City:

Trip Planner

Search our weather history database for the weather conditions in past years. The results will help you decide how hot, cold, wet, or windy it might be!

Date:

Astronomy

Jan. 31, 2013 Rise Set
Actual Time 7:11 AM CST 5:13 PM CST
Civil Twilight 6:42 AM CST 5:42 PM CST
Nautical Twilight 6:08 AM CST 6:16 PM CST
Astronomical Twilight 5:36 AM CST 6:48 PM CST
Moon 10:20 PM CST (1/31) 9:06 AM CST (1/31)
Length of Visible Light 11h 00m
Length of Day
10h 01m
Waning Gibbous, 79% of the Moon is Illuminated
Jan 31
Waning Gibbous
Feb 3
Last Quarter
Feb 10
New
Feb 17
First Quarter
Feb 25
Full

Hourly Weather History & Observations

Time (CST) Temp. Windchill Dew Point Humidity Pressure Visibility Wind Dir Wind Speed Gust Speed Precip Events Conditions
12:15 AM 17.6 °F 2.7 °F 8.6 °F 68% 29.72 in 10.0 mi WNW 16.1 mph 25.3 mph N/A   Overcast
12:35 AM 17.6 °F 3.2 °F 10.4 °F 73% 29.72 in 6.0 mi West 15.0 mph - N/A   Overcast
12:55 AM - - - N/A% 29.73 in 10.0 mi West 21.9 mph 28.8 mph N/A   Overcast
1:15 AM 15.8 °F -1.5 °F 8.6 °F 73% 29.74 in 10.0 mi WNW 20.7 mph 27.6 mph N/A   Overcast
1:35 AM - - - N/A% 29.74 in 10.0 mi West 19.6 mph 28.8 mph N/A   Mostly Cloudy
1:55 AM 15.8 °F -1.5 °F 8.6 °F 73% 29.76 in 10.0 mi West 20.7 mph 25.3 mph N/A   Scattered Clouds
2:15 AM 17.6 °F 1.7 °F 10.4 °F 73% 29.77 in 10.0 mi WNW 18.4 mph - N/A   Mostly Cloudy
2:35 AM 17.6 °F 1.7 °F 10.4 °F 73% 29.77 in 10.0 mi WNW 18.4 mph 26.5 mph N/A   Overcast
3:15 AM 17.6 °F 0.9 °F 10.4 °F 73% 29.77 in 10.0 mi WNW 20.7 mph - N/A   Overcast
3:35 AM 17.6 °F 1.3 °F 8.6 °F 68% 29.77 in 10.0 mi WNW 19.6 mph 25.3 mph N/A   Overcast
3:55 AM 17.6 °F 0.5 °F 10.4 °F 73% 29.77 in 10.0 mi WNW 21.9 mph 27.6 mph N/A   Overcast
4:15 AM 17.6 °F 0.9 °F 8.6 °F 68% 29.78 in 10.0 mi WNW 20.7 mph 24.2 mph N/A   Overcast
4:35 AM 15.8 °F -1.5 °F 8.6 °F 73% 29.78 in 10.0 mi West 20.7 mph 26.5 mph N/A   Overcast
4:55 AM 15.8 °F -1.1 °F 8.6 °F 73% 29.78 in 8.0 mi WNW 19.6 mph 26.5 mph N/A   Overcast
5:15 AM - - - N/A% 29.78 in 10.0 mi West 24.2 mph 29.9 mph N/A   Overcast
5:35 AM 15.8 °F -1.5 °F 6.8 °F 68% 29.79 in 8.0 mi West 20.7 mph - N/A   Overcast
5:55 AM 12.2 °F -7.1 °F 5.0 °F 73% 29.80 in 10.0 mi West 23.0 mph 29.9 mph N/A   Scattered Clouds
6:15 AM 12.2 °F -5.8 °F 5.0 °F 73% 29.81 in 10.0 mi West 19.6 mph 31.1 mph N/A   Scattered Clouds
6:55 AM 10.4 °F -9.5 °F 3.2 °F 73% 29.83 in 10.0 mi WNW 23.0 mph 27.6 mph N/A   Partly Cloudy
7:15 AM 10.4 °F -8.2 °F 3.2 °F 73% 29.84 in 7.0 mi West 19.6 mph 25.3 mph N/A   Mostly Cloudy
7:35 AM 10.4 °F -8.6 °F 1.4 °F 67% 29.85 in 10.0 mi WNW 20.7 mph - N/A   Mostly Cloudy
7:55 AM 10.4 °F -9.1 °F 1.4 °F 67% 29.85 in 10.0 mi WNW 21.9 mph 28.8 mph N/A   Partly Cloudy
8:15 AM 10.4 °F -8.6 °F 1.4 °F 67% 29.87 in 10.0 mi West 20.7 mph 26.5 mph N/A   Partly Cloudy
8:35 AM 10.4 °F -8.6 °F 3.2 °F 73% 29.87 in 10.0 mi WNW 20.7 mph 28.8 mph N/A   Scattered Clouds
8:55 AM 12.2 °F -7.1 °F 3.2 °F 67% 29.88 in 10.0 mi WNW 23.0 mph - N/A   Scattered Clouds
9:15 AM 10.4 °F -8.6 °F 1.4 °F 67% 29.88 in 9.0 mi WNW 20.7 mph 27.6 mph N/A   Mostly Cloudy
9:35 AM 12.2 °F -5.8 °F 5.0 °F 73% 29.89 in 9.0 mi West 19.6 mph - N/A   Mostly Cloudy
9:55 AM 12.2 °F -5.8 °F 5.0 °F 73% 29.90 in 10.0 mi West 19.6 mph - N/A   Overcast
10:15 AM 14.0 °F -3.9 °F 5.0 °F 67% 29.91 in 10.0 mi WNW 20.7 mph - N/A   Mostly Cloudy
10:35 AM 14.0 °F -3.9 °F 5.0 °F 67% 29.92 in 10.0 mi WNW 20.7 mph 27.6 mph N/A   Mostly Cloudy
10:55 AM 12.2 °F -7.1 °F 3.2 °F 67% 29.93 in 10.0 mi West 23.0 mph - N/A   Mostly Cloudy
11:16 AM 14.0 °F -4.3 °F 5.0 °F 67% 29.93 in 10.0 mi West 21.9 mph 25.3 mph N/A   Mostly Cloudy
11:35 AM 14.0 °F -3.9 °F 5.0 °F 67% 29.94 in 10.0 mi West 20.7 mph 25.3 mph N/A   Mostly Cloudy
11:55 AM 14.0 °F -3.9 °F 3.2 °F 62% 29.94 in 10.0 mi WNW 20.7 mph 26.5 mph N/A   Mostly Cloudy
12:15 PM 12.2 °F -6.3 °F 3.2 °F 67% 29.95 in 10.0 mi WNW 20.7 mph 27.6 mph N/A   Mostly Cloudy
12:35 PM 15.8 °F -3.1 °F 6.8 °F 68% 29.95 in 8.0 mi WNW 25.3 mph 28.8 mph N/A   Overcast
12:55 PM - - - N/A% 29.95 in 10.0 mi WNW 25.3 mph 31.1 mph N/A   Overcast
1:15 PM 14.0 °F -5.5 °F 1.4 °F 57% 29.95 in 10.0 mi WNW 25.3 mph 29.9 mph N/A   Mostly Cloudy
1:35 PM 14.0 °F -5.1 °F 3.2 °F 62% 29.96 in 10.0 mi WNW 24.2 mph 32.2 mph N/A   Mostly Cloudy
2:15 PM 12.2 °F -6.3 °F 1.4 °F 62% 29.97 in 10.0 mi West 20.7 mph 29.9 mph N/A   Overcast
2:35 PM 12.2 °F -7.5 °F 3.2 °F 67% 29.98 in 10.0 mi West 24.2 mph 29.9 mph N/A   Overcast
2:55 PM 12.2 °F -7.5 °F 1.4 °F 62% 29.99 in 10.0 mi West 24.2 mph 32.2 mph N/A   Overcast
3:15 PM 12.2 °F -7.1 °F 1.4 °F 62% 29.99 in 10.0 mi WNW 23.0 mph 29.9 mph N/A   Overcast
3:35 PM - - - N/A% 30.00 in 9.0 mi WNW 27.6 mph 32.2 mph N/A   Overcast
3:55 PM - - - N/A% 30.01 in 10.0 mi West 24.2 mph 32.2 mph N/A   Mostly Cloudy
4:15 PM - - - N/A% 30.02 in 10.0 mi West 24.2 mph 33.4 mph N/A   Mostly Cloudy
4:35 PM 8.6 °F -11.4 °F -2.2 °F 62% 30.03 in 10.0 mi WNW 21.9 mph 28.8 mph N/A   Scattered Clouds
4:55 PM 8.6 °F -12.7 °F -0.4 °F 67% 30.04 in 10.0 mi WNW 25.3 mph - N/A   Mostly Cloudy
5:15 PM 8.6 °F -12.3 °F -2.2 °F 62% 30.05 in 10.0 mi WNW 24.2 mph 31.1 mph N/A   Scattered Clouds
5:35 PM - - - N/A% 30.06 in 10.0 mi WNW 25.3 mph 34.5 mph N/A   Partly Cloudy
5:55 PM 6.8 °F -14.3 °F -2.2 °F 67% 30.08 in 10.0 mi WNW 23.0 mph 32.2 mph N/A   Partly Cloudy
6:15 PM 6.8 °F -15.1 °F -2.2 °F 67% 30.09 in 10.0 mi WNW 25.3 mph 33.4 mph N/A   Scattered Clouds
6:35 PM 6.8 °F -14.7 °F -4.0 °F 61% 30.10 in 10.0 mi WNW 24.2 mph 32.2 mph N/A   Mostly Cloudy
7:15 PM 5.0 °F -16.2 °F -2.2 °F 72% 30.12 in 10.0 mi WNW 21.9 mph 32.2 mph N/A   Mostly Cloudy
8:15 PM 3.2 °F -19.0 °F -5.8 °F 66% 30.15 in 10.0 mi WNW 23.0 mph 31.1 mph N/A   Mostly Cloudy
8:35 PM 3.2 °F -18.6 °F -5.8 °F 66% 30.16 in 10.0 mi WNW 21.9 mph 27.6 mph N/A   Overcast
8:55 PM 3.2 °F -17.1 °F -4.0 °F 72% 30.17 in 10.0 mi WNW 18.4 mph 29.9 mph N/A   Mostly Cloudy
9:15 PM 3.2 °F -17.1 °F -5.8 °F 66% 30.17 in 10.0 mi WNW 18.4 mph 27.6 mph N/A   Mostly Cloudy
9:35 PM 3.2 °F -15.3 °F -5.8 °F 66% 30.18 in 10.0 mi WNW 15.0 mph 21.9 mph N/A   Partly Cloudy
9:55 PM 3.2 °F -14.6 °F -7.6 °F 61% 30.19 in 10.0 mi WNW 13.8 mph 23.0 mph N/A   Clear
10:15 PM 3.2 °F -13.9 °F -5.8 °F 66% 30.20 in 10.0 mi WNW 12.7 mph 26.5 mph N/A   Clear
10:35 PM 1.4 °F -21.0 °F -5.8 °F 72% 30.20 in 10.0 mi WNW 21.9 mph - N/A   Clear
10:55 PM 1.4 °F -20.5 °F -5.8 °F 72% 30.21 in 10.0 mi WNW 20.7 mph 26.5 mph N/A   Clear
11:15 PM 1.4 °F -19.9 °F -7.6 °F 66% 30.22 in 10.0 mi WNW 19.6 mph 25.3 mph N/A   Clear
11:35 PM 1.4 °F -19.4 °F -7.6 °F 66% 30.23 in 10.0 mi WNW 18.4 mph 23.0 mph N/A   Clear